Regional Weather Roundup
Issued by NWS

Home | Current Version | Previous Version | Text Only | Print | Product List | Glossary On
Versions: 1 2 3 4 5 6 7 8 9 10 11 12 13 14 15 16 17 18 19 20 21 22 23 24 25 26 27 28 29 30 31 32 33 34 35 36 37 38 39 40 41 42 43 44 45 46 47 48 49 50
000
ASUS44 KBMX 310310
RWRAL

ALABAMA REGIONAL WEATHER ROUNDUP
NATIONAL WEATHER SERVICE BIRMINGHAM AL
1000 PM CDT SAT AUG 30 2014

NOTE: "FAIR" INDICATES FEW OR NO CLOUDS BELOW 12,000 FEET
WITH NO SIGNIFICANT WEATHER AND/OR OBSTRUCTIONS TO VISIBILITY.

THE REMARK "TC" DENOTES TEMPERATURE IN DEGREES CELSIUS.

ALZ001>011-014-016>018-020-310400-
NORTH ALABAMA

CITY           SKY/WX    TMP DP  RH WIND       PRES   REMARKS
MUSCLE SHOALS  CLOUDY    73  70  90 CALM      30.10F
HUNTSVILLE     CLOUDY    73  73 100 S5        30.12F
DECATUR        CLOUDY    71  71 100 SE6       30.12S
HALEYVILLE     FAIR      69  69 100 CALM      30.14R
GADSDEN        CLOUDY    72  66  83 SE7       30.13R
$$

ALZ012-013-022-023-030>036-040>044-310400-
WEST CENTRAL ALABAMA

CITY           SKY/WX    TMP DP  RH WIND       PRES   REMARKS
TUSCALOOSA     MOCLDY    74  72  93 E3        30.10R
$$

ALZ015-024>027-033>036-040>044-310400-
CENTRAL ALABAMA

CITY           SKY/WX    TMP DP  RH WIND       PRES   REMARKS
BIRMINGHAM     CLOUDY    73  72  96 CALM      30.14R
MONTGOMERY     MOCLDY    75  72  90 CALM      30.12R
SHELBY CO ARPT CLOUDY    73  71  93 CALM      30.11F
MAXWELL AFB    MOCLDY    74  74 100 SW2       30.12R
GREENVILLE     FAIR      75  71  87 E3        30.11
$$

ALZ019-021-028-029-037-038-045>048-310400-
EAST CENTRAL ALABAMA

CITY           SKY/WX    TMP DP  RH WIND       PRES   REMARKS
ANNISTON       CLOUDY    73  71  93 CALM      30.14S
ALEXANDER CITY CLOUDY    78  70  76 CALM      30.14R
AUBURN         CLOUDY    73  70  88 N3        30.17R
$$

ALZ051>064-310400-
SOUTHWEST ALABAMA

CITY           SKY/WX    TMP DP  RH WIND       PRES   REMARKS
MOBILE         PTCLDY    77  75  93 CALM      30.09S
BROOKLEY FIELD RAIN      77  76  96 W3        30.10R
EVERGREEN      MOCLDY    79  74  84 S3        30.11R
$$

ALZ049-050-065>069-310400-
SOUTHEAST ALABAMA

CITY           SKY/WX    TMP DP  RH WIND       PRES   REMARKS
DOTHAN         CLOUDY    80  73  79 CALM      30.15R
OZARK          CLOUDY    80  74  80 SW3       30.12R
TROY           MOCLDY    77  73  87 CALM      30.13R
EUFAULA        FAIR      78  74  87 CALM      30.11R
$$



USA.gov is the U.S. government's official web portal to all federal, state and local government web resources and services.